SCP
0 0 0 0 0 0 0 0 0 0 0 0 0 0 0 0 0 0 0 0 0 0 0 0 0 1 2 1 0 0 0 0 0 0 0 0 0 0 0 0 0 0 0 0
0 0 0 0 0 0 0 0 0 0 0 0 0 0 0 0 0 -0 -0 0 0 0 0 0 0 1 2 2 1 1 0 1 0 0 0 0 0 0 0 0 0 0 0 0
0 0 0 0 0 0 0 0 0 0 0 0 0 0 0 0 0 0 0 0 0 0 0 0 0 1 1 2 2 1 2 2 1 1 1 1 0 0 0 0 0 0 0 0
0 0 0 0 0 0 0 0 0 0 0 0 0 0 0 0 0 0 0 0 0 0 0 0 0 1 1 1 2 2 2 3 2 2 2 1 1 2 1 0 0 0 0 0
0 0 0 0 0 0 0 0 0 0 0 0 0 0 0 0 0 0 0 0 0 0 0 0 0 0 1 1 2 2 2 3 4 3 2 2 1 1 1 0 0 0 0 0
0 0 0 0 0 0 0 0 0 0 0 0 0 0 0 0 0 0 0 0 0 0 0 0 0 0 1 1 2 3 4 4 5 3 3 2 1 0 0 0 0 0 0 0
0 0 0 0 0 0 0 0 0 0 0 0 0 0 0 0 0 0 0 0 0 0 0 0 0 1 2 2 2 3 4 4 4 2 2 2 0 0 0 0 0 0 0 0
0 0 0 0 0 0 0 0 0 0 0 0 0 0 0 0 0 0 0 0 0 0 0 0 0 0 1 1 2 3 3 3 2 1 2 2 0 0 0 0 0 0 0 0
0 0 0 0 0 0 0 0 0 0 0 0 0 0 0 0 0 0 0 0 0 0 0 0 0 0 0 0 1 1 1 1 0 0 1 1 0 0 0 0 0 0 0 0
0 0 0 0 0 0 0 0 0 0 0 0 0 0 0 0 0 0 0 0 0 0 0 0 0 0 0 0 0 0 0 0 0 0 0 0 0 0 0 0 0 0 0 0
0 0 0 0 0 0 0 0 0 0 0 0 0 0 0 0 0 0 0 0 0 0 0 -0 0 0 0 0 0 1 1 0 0 0 0 0 0 1 0 0 0 0 0 0
0 0 0 0 0 0 0 0 0 0 0 0 0 0 0 0 -0 0 0 0 0 0 0 0 0 0 0 0 0 0 0 0 1 0 0 0 0 0 0 0 0 0 0 0
0 0 0 0 0 0 0 0 0 0 0 0 0 0 0 0 0 0 0 0 0 0 -0 -0 0 0 0 0 0 0 0 0 0 0 0 0 0 0 0 0 0 0 0 0
0 0 0 0 0 0 0 0 0 0 0 0 0 0 0 0 0 0 0 0 0 0 0 0 -0 0 0 0 0 0 0 0 0 0 0 -0 -0 0 0 0 0 0 0 0
0 0 0 0 0 0 0 0 0 0 0 0 0 0 0 0 0 0 0 0 0 0 0 0 -0 -0 -0 0 0 0 0 0 0 0 0 -0 -0 0 0 0 0 0 1 0
0 0 0 0 0 0 0 0 0 0 0 0 0 0 0 0 0 0 0 0 0 0 0 0 -0 -0 -0 -0 0 0 0 0 0 0 0 0 0 0 0 0 0 0 0 0
0 0 0 0 0 0 0 0 0 0 0 0 0 0 0 0 0 0 0 0 0 0 0 0 0 0 0 0 0 0 0 0 0 0 0 0 0 0 0 0 0 0 0 0
0 0 0 0 0 0 0 0 0 0 0 0 0 0 0 0 0 0 0 0 0 0 0 0 0 0 0 0 0 0 0 0 0 0 0 0 0 0 0 0 0 0 0 0
0 0 0 0 0 0 0 0 0 0 0 0 0 0 0 0 -0 -0 0 0 0 0 0 0 0 0 0 0 0 0 0 0 0 -0 0 0 -0 0 0 -0 0 0 -0 0
0 0 0 0 0 0 0 0 0 0 0 0 0 0 -0 -0 -0 -0 -0 -0 -0 0 0 0 0 0 0 0 0 0 0 0 0 0 0 0 0 -0 0 -0 0 0 0 0
0 0 0 0 0 0 0 0 0 0 0 0 0 0 0 0 0 0 0 0 0 0 0 0 0 0 0 0 0 0 0 0 0 0 0 0 0 -0 -0 0 -0 0 0 0
0 0 0 0 0 0 0 0 0 0 0 0 0 0 0 0 0 0 0 0 0 0 0 0 0 0 0 0 0 0 0 0 0 0 0 0 0 -0 -0 0 0 0 0 0
0 0 0 0 0 0 0 0 0 0 0 0 0 0 0 0 0 0 0 0 0 0 0 0 0 0 0 0 0 0 0 0 0 0 0 0 0 -0 0 0 0 0 0 0
0 0 0 0 0 0 0 0 0 0 0 0 0 0 0 0 0 0 0 0 0 0 0 0 0 0 0 0 0 0 0 0 0 0 0 0 0 0 -0 0 0 0 0 0
0 0 0 0 0 0 0 0 0 0 0 0 0 0 0 0 0 0 0 0 0 0 0 0 0 0 0 0 0 0 0 0 0 0 0 0 0 0 0 -0 0 0 0 0
0 0 0 0 0 0 0 0 0 0 0 0 0 0 0 0 0 0 0 0 0 0 0 0 0 0 0 0 0 0 0 0 0 0 0 0 0 0 0 0 0 0 0 0
Wind_Speed_500mb
4 6 12 17 15 12 8 8 15 27 25 1 18 14 26 35 25 27 39 43 45 44 51 53 46 51 77 85 93 100 97 85 78 79 76 76 71 66 59 55 52 48 50 50
8 11 19 14 9 10 11 9 23 22 29 11 20 18 19 16 14 18 31 41 41 44 38 49 38 40 54 83 87 98 102 93 88 89 83 79 74 75 61 59 60 52 51 52
14 16 6 9 8 9 13 10 19 20 35 9 9 8 11 12 9 25 33 35 41 37 38 38 38 32 34 68 95 91 101 99 96 94 89 87 82 74 69 72 71 57 55 49
9 12 12 8 11 12 14 15 24 25 10 13 6 21 9 9 14 9 41 47 48 43 37 28 17 32 41 46 74 101 96 104 105 103 96 97 91 90 86 81 79 58 60 56
15 6 8 8 12 8 17 16 16 13 11 3 6 2 15 4 6 16 27 41 46 41 43 39 27 24 43 53 64 88 111 110 111 110 105 99 93 89 87 84 74 66 63 61
13 6 4 6 4 5 8 5 8 9 5 8 11 12 7 4 6 7 15 39 48 54 55 49 27 20 35 56 69 87 113 102 93 104 103 100 94 94 90 81 76 73 67 62
5 4 7 14 8 9 14 11 6 8 4 13 9 3 4 12 14 7 17 39 53 55 66 71 62 19 12 36 59 64 74 90 91 91 101 97 99 99 91 83 79 77 73 69
4 0 15 15 7 4 7 6 8 7 5 8 11 7 6 14 14 22 35 40 67 72 72 68 70 54 22 18 32 44 58 72 86 95 90 93 93 89 83 79 80 78 72 68
5 7 8 20 17 6 11 9 5 2 8 4 7 5 8 8 15 23 30 53 63 68 71 70 70 70 52 19 16 30 43 57 53 63 70 76 82 85 83 74 78 80 76 69
0 6 4 6 6 17 8 3 4 5 6 9 9 8 2 10 13 16 21 28 36 50 59 61 66 68 68 58 38 21 14 11 10 26 43 46 49 75 79 71 81 86 80 65
4 4 9 8 9 5 9 5 8 5 6 12 3 8 3 7 8 5 11 3 11 18 25 37 38 43 49 54 57 53 38 19 9 13 24 31 25 52 56 74 76 74 50 72
3 9 6 7 13 2 7 7 7 7 7 5 4 9 7 6 8 5 20 20 5 6 10 22 31 32 31 35 28 30 40 44 41 33 27 33 49 45 57 61 58 69 65 88
8 3 4 3 3 5 7 2 4 4 6 7 7 8 5 13 22 24 18 49 25 14 6 9 12 10 17 22 26 33 34 28 28 40 50 40 34 47 65 70 78 76 75 53
9 4 8 11 6 1 3 7 7 6 4 6 8 12 16 19 20 35 39 36 43 37 21 13 10 13 12 14 23 30 36 33 25 35 50 61 39 34 47 57 65 60 66 83
7 6 4 7 10 7 9 10 8 8 12 10 10 10 6 13 16 28 35 47 32 35 31 32 21 12 5 17 22 20 19 30 35 35 34 50 49 40 33 49 55 51 63 62
7 4 2 6 6 2 7 18 15 13 12 7 8 7 3 20 26 28 40 43 50 55 39 31 28 18 12 5 16 15 22 30 35 35 37 39 45 43 43 33 48 47 58 60
4 8 5 7 6 9 8 6 3 5 2 5 7 6 11 10 26 30 31 42 45 56 63 38 29 22 17 15 14 17 17 19 25 31 29 33 39 40 38 38 44 42 54 57
10 9 5 6 4 2 8 5 6 2 4 3 1 4 12 19 39 51 33 39 51 57 56 47 34 14 10 11 12 11 11 13 19 24 30 27 27 34 35 39 42 53 53 52
13 10 3 5 5 8 6 3 1 6 10 7 5 9 21 24 36 50 22 44 58 67 61 55 39 29 24 20 20 17 19 16 13 17 20 30 36 34 34 42 44 40 45 44
13 9 8 5 5 7 10 8 11 7 10 6 5 10 17 29 18 24 37 70 79 71 64 61 49 38 28 25 20 20 20 18 17 20 29 33 41 42 45 43 43 42 42 43
6 3 10 5 5 13 7 11 6 5 8 13 19 29 30 16 32 57 67 65 61 68 68 60 59 55 34 21 25 29 23 21 20 19 31 39 36 39 45 45 48 41 40 36
7 8 5 4 4 13 7 4 7 5 8 29 38 33 39 49 54 59 63 69 67 63 65 69 63 60 54 45 33 27 33 22 23 18 24 31 36 38 38 42 46 39 35 35
2 8 6 13 10 8 10 10 20 14 26 26 34 42 46 51 58 61 63 64 69 70 65 60 57 56 58 56 38 36 29 24 22 25 22 28 34 35 36 35 36 32 29 32
5 2 3 5 6 10 18 21 17 26 31 37 39 52 57 58 64 60 64 63 65 65 60 55 55 55 50 47 49 45 36 34 28 25 26 29 29 31 34 35 32 30 30 24
12 2 5 9 16 19 14 13 23 33 41 50 53 57 58 62 66 58 64 62 60 61 60 53 52 54 55 45 36 41 44 38 39 30 28 31 25 26 32 33 22 21 22 27
14 11 8 10 13 11 24 29 31 42 51 55 57 67 64 56 55 59 58 56 55 58 58 56 48 45 39 29 37 44 44 39 35 36 38 33 26 21 27 28 19 13 16 21
Wind_Direction_500mb
189 126 215 225 206 192 216 234 269 279 273 333 272 273 282 293 312 310 317 323 315 301 265 258 249 235 234 227 224 222 218 220 208 205 210 208 210 203 200 205 208 211 208 211
29 232 227 225 203 197 208 249 271 291 268 146 276 264 267 279 261 286 311 321 329 326 288 265 252 232 224 226 224 226 220 221 213 213 213 210 208 207 207 209 210 213 214 217
177 233 147 180 256 232 240 208 260 232 288 273 249 272 248 279 268 306 312 340 357 356 336 302 280 247 241 224 227 228 223 221 217 216 213 209 209 211 210 208 210 208 215 226
204 266 237 267 251 181 263 224 247 266 273 265 127 273 270 251 294 344 23 20 9 4 1 337 304 253 239 230 228 224 225 223 216 216 216 213 211 209 213 207 207 206 214 225
233 221 206 214 227 194 229 266 248 244 231 211 275 20 275 217 293 33 12 18 33 33 18 355 319 257 242 239 228 229 221 223 218 218 220 217 214 213 213 207 207 207 213 220
192 201 174 238 64 110 281 280 11 45 117 247 215 187 248 296 318 57 16 20 26 42 31 19 352 272 234 242 235 227 223 218 214 217 213 214 212 215 215 214 209 208 212 219
34 61 75 30 39 14 42 59 325 309 318 249 324 80 331 69 34 34 41 29 28 39 49 42 34 23 228 230 225 216 211 213 214 218 212 212 214 221 223 223 217 212 215 219
101 50 13 333 47 305 14 86 114 268 271 276 324 256 50 75 72 40 48 48 52 50 50 50 50 48 63 185 202 215 217 216 219 229 230 222 224 221 226 222 216 215 218 225
13 95 332 68 65 43 327 57 149 180 359 11 264 107 101 71 34 26 22 50 49 54 50 48 54 54 60 79 159 179 209 227 234 240 249 243 233 233 225 223 219 217 225 226
283 352 64 331 34 36 89 279 63 40 354 305 313 335 99 352 20 1 2 30 50 54 58 55 53 54 60 67 79 95 146 155 222 243 245 245 248 245 240 226 224 222 219 222
89 102 314 15 29 11 4 36 53 99 179 201 201 271 328 292 296 359 303 48 66 53 61 65 62 62 54 52 60 70 66 65 39 287 267 264 230 242 247 250 237 231 237 253
75 146 159 216 331 188 140 153 117 148 228 261 201 268 221 224 263 343 308 283 352 32 58 79 71 60 50 61 60 41 44 42 35 10 330 295 274 243 240 238 245 227 257 238
150 33 71 17 19 18 59 39 172 141 78 225 168 255 208 320 316 309 302 312 276 268 296 275 324 30 51 59 53 53 53 40 15 5 358 336 311 268 251 242 246 250 246 238
80 88 159 196 191 65 262 316 295 154 159 244 228 280 333 351 344 334 333 309 293 299 279 251 298 13 7 322 316 319 317 331 339 356 355 351 335 296 261 254 258 251 247 245
94 119 191 199 229 231 253 251 263 255 223 193 253 255 307 313 314 325 340 359 340 311 292 269 262 271 325 27 31 26 16 352 340 332 336 345 342 335 261 252 261 260 247 253
2 142 57 295 287 273 273 292 279 251 269 258 285 235 38 316 333 355 2 3 6 6 343 296 273 250 216 294 316 329 336 334 332 331 316 338 342 337 325 276 254 251 254 246
127 132 90 264 325 315 323 233 310 295 357 248 231 244 342 322 339 333 352 3 360 358 3 359 314 275 258 250 275 287 298 304 312 316 316 309 321 336 320 291 265 258 256 259
140 116 114 262 342 240 234 23 94 156 94 11 94 326 317 306 317 317 291 326 339 339 344 358 9 339 257 285 308 308 295 292 292 299 304 324 311 315 329 315 277 263 253 260
155 130 166 165 191 289 209 259 78 90 268 197 238 292 304 309 316 302 298 312 317 318 318 321 329 332 293 289 298 285 288 275 285 299 304 308 318 315 319 322 319 297 270 267
111 96 130 136 115 236 235 220 264 147 273 114 316 306 319 333 311 294 312 307 308 305 304 304 301 308 308 283 283 274 274 271 271 295 305 305 306 313 313 313 315 315 288 264
119 102 174 165 196 283 200 256 269 141 246 325 325 318 308 290 280 292 304 306 306 307 304 297 294 288 281 295 293 259 268 262 267 281 294 305 309 312 309 310 305 307 305 284
178 148 195 96 85 270 152 138 180 211 293 309 309 303 292 290 293 295 297 300 303 300 300 298 296 283 264 265 286 271 243 254 261 276 290 304 307 322 316 311 308 305 307 287
298 178 191 175 217 207 192 244 263 283 309 311 304 305 298 291 295 301 299 294 300 300 300 298 294 294 274 261 260 266 246 251 267 262 277 292 302 313 328 316 309 318 314 299
294 234 195 43 273 219 242 290 215 319 306 306 306 311 308 294 297 293 301 296 295 296 295 300 291 289 277 270 253 250 255 260 262 258 254 271 284 305 319 324 314 316 316 297
225 277 223 266 277 279 276 290 293 306 308 309 311 313 306 297 288 285 300 294 296 300 306 300 290 287 281 271 269 252 257 260 253 250 245 255 267 293 313 324 311 324 322 290
195 194 163 225 225 231 276 306 301 309 322 316 312 313 310 302 293 294 294 296 301 307 304 300 291 281 270 267 256 246 249 263 257 246 234 237 250 275 303 296 292 316 325 311
Wind_Speed_850mb
4 6 12 17 15 12 8 8 15 27 25 1 18 14 26 35 25 27 39 43 45 44 51 53 46 51 77 85 93 100 97 85 78 79 76 76 71 66 59 55 52 48 50 50
8 11 19 14 9 10 11 9 23 22 29 11 20 18 19 16 14 18 31 41 41 44 38 49 38 40 54 83 87 98 102 93 88 89 83 79 74 75 61 59 60 52 51 52
14 16 6 9 8 9 13 10 19 20 35 9 9 8 11 12 9 25 33 35 41 37 38 38 38 32 34 68 95 91 101 99 96 94 89 87 82 74 69 72 71 57 55 49
9 12 12 8 11 12 14 15 24 25 10 13 6 21 9 9 14 9 41 47 48 43 37 28 17 32 41 46 74 101 96 104 105 103 96 97 91 90 86 81 79 58 60 56
15 6 8 8 12 8 17 16 16 13 11 3 6 2 15 4 6 16 27 41 46 41 43 39 27 24 43 53 64 88 111 110 111 110 105 99 93 89 87 84 74 66 63 61
13 6 4 6 4 5 8 5 8 9 5 8 11 12 7 4 6 7 15 39 48 54 55 49 27 20 35 56 69 87 113 102 93 104 103 100 94 94 90 81 76 73 67 62
5 4 7 14 8 9 14 11 6 8 4 13 9 3 4 12 14 7 17 39 53 55 66 71 62 19 12 36 59 64 74 90 91 91 101 97 99 99 91 83 79 77 73 69
4 0 15 15 7 4 7 6 8 7 5 8 11 7 6 14 14 22 35 40 67 72 72 68 70 54 22 18 32 44 58 72 86 95 90 93 93 89 83 79 80 78 72 68
5 7 8 20 17 6 11 9 5 2 8 4 7 5 8 8 15 23 30 53 63 68 71 70 70 70 52 19 16 30 43 57 53 63 70 76 82 85 83 74 78 80 76 69
0 6 4 6 6 17 8 3 4 5 6 9 9 8 2 10 13 16 21 28 36 50 59 61 66 68 68 58 38 21 14 11 10 26 43 46 49 75 79 71 81 86 80 65
4 4 9 8 9 5 9 5 8 5 6 12 3 8 3 7 8 5 11 3 11 18 25 37 38 43 49 54 57 53 38 19 9 13 24 31 25 52 56 74 76 74 50 72
3 9 6 7 13 2 7 7 7 7 7 5 4 9 7 6 8 5 20 20 5 6 10 22 31 32 31 35 28 30 40 44 41 33 27 33 49 45 57 61 58 69 65 88
8 3 4 3 3 5 7 2 4 4 6 7 7 8 5 13 22 24 18 49 25 14 6 9 12 10 17 22 26 33 34 28 28 40 50 40 34 47 65 70 78 76 75 53
9 4 8 11 6 1 3 7 7 6 4 6 8 12 16 19 20 35 39 36 43 37 21 13 10 13 12 14 23 30 36 33 25 35 50 61 39 34 47 57 65 60 66 83
7 6 4 7 10 7 9 10 8 8 12 10 10 10 6 13 16 28 35 47 32 35 31 32 21 12 5 17 22 20 19 30 35 35 34 50 49 40 33 49 55 51 63 62
7 4 2 6 6 2 7 18 15 13 12 7 8 7 3 20 26 28 40 43 50 55 39 31 28 18 12 5 16 15 22 30 35 35 37 39 45 43 43 33 48 47 58 60
4 8 5 7 6 9 8 6 3 5 2 5 7 6 11 10 26 30 31 42 45 56 63 38 29 22 17 15 14 17 17 19 25 31 29 33 39 40 38 38 44 42 54 57
10 9 5 6 4 2 8 5 6 2 4 3 1 4 12 19 39 51 33 39 51 57 56 47 34 14 10 11 12 11 11 13 19 24 30 27 27 34 35 39 42 53 53 52
13 10 3 5 5 8 6 3 1 6 10 7 5 9 21 24 36 50 22 44 58 67 61 55 39 29 24 20 20 17 19 16 13 17 20 30 36 34 34 42 44 40 45 44
13 9 8 5 5 7 10 8 11 7 10 6 5 10 17 29 18 24 37 70 79 71 64 61 49 38 28 25 20 20 20 18 17 20 29 33 41 42 45 43 43 42 42 43
6 3 10 5 5 13 7 11 6 5 8 13 19 29 30 16 32 57 67 65 61 68 68 60 59 55 34 21 25 29 23 21 20 19 31 39 36 39 45 45 48 41 40 36
7 8 5 4 4 13 7 4 7 5 8 29 38 33 39 49 54 59 63 69 67 63 65 69 63 60 54 45 33 27 33 22 23 18 24 31 36 38 38 42 46 39 35 35
2 8 6 13 10 8 10 10 20 14 26 26 34 42 46 51 58 61 63 64 69 70 65 60 57 56 58 56 38 36 29 24 22 25 22 28 34 35 36 35 36 32 29 32
5 2 3 5 6 10 18 21 17 26 31 37 39 52 57 58 64 60 64 63 65 65 60 55 55 55 50 47 49 45 36 34 28 25 26 29 29 31 34 35 32 30 30 24
12 2 5 9 16 19 14 13 23 33 41 50 53 57 58 62 66 58 64 62 60 61 60 53 52 54 55 45 36 41 44 38 39 30 28 31 25 26 32 33 22 21 22 27
14 11 8 10 13 11 24 29 31 42 51 55 57 67 64 56 55 59 58 56 55 58 58 56 48 45 39 29 37 44 44 39 35 36 38 33 26 21 27 28 19 13 16 21
Wind_Direction_850mb
189 126 215 225 206 192 216 234 269 279 273 333 272 273 282 293 312 310 317 323 315 301 265 258 249 235 234 227 224 222 218 220 208 205 210 208 210 203 200 205 208 211 208 211
29 232 227 225 203 197 208 249 271 291 268 146 276 264 267 279 261 286 311 321 329 326 288 265 252 232 224 226 224 226 220 221 213 213 213 210 208 207 207 209 210 213 214 217
177 233 147 180 256 232 240 208 260 232 288 273 249 272 248 279 268 306 312 340 357 356 336 302 280 247 241 224 227 228 223 221 217 216 213 209 209 211 210 208 210 208 215 226
204 266 237 267 251 181 263 224 247 266 273 265 127 273 270 251 294 344 23 20 9 4 1 337 304 253 239 230 228 224 225 223 216 216 216 213 211 209 213 207 207 206 214 225
233 221 206 214 227 194 229 266 248 244 231 211 275 20 275 217 293 33 12 18 33 33 18 355 319 257 242 239 228 229 221 223 218 218 220 217 214 213 213 207 207 207 213 220
192 201 174 238 64 110 281 280 11 45 117 247 215 187 248 296 318 57 16 20 26 42 31 19 352 272 234 242 235 227 223 218 214 217 213 214 212 215 215 214 209 208 212 219
34 61 75 30 39 14 42 59 325 309 318 249 324 80 331 69 34 34 41 29 28 39 49 42 34 23 228 230 225 216 211 213 214 218 212 212 214 221 223 223 217 212 215 219
101 50 13 333 47 305 14 86 114 268 271 276 324 256 50 75 72 40 48 48 52 50 50 50 50 48 63 185 202 215 217 216 219 229 230 222 224 221 226 222 216 215 218 225
13 95 332 68 65 43 327 57 149 180 359 11 264 107 101 71 34 26 22 50 49 54 50 48 54 54 60 79 159 179 209 227 234 240 249 243 233 233 225 223 219 217 225 226
283 352 64 331 34 36 89 279 63 40 354 305 313 335 99 352 20 1 2 30 50 54 58 55 53 54 60 67 79 95 146 155 222 243 245 245 248 245 240 226 224 222 219 222
89 102 314 15 29 11 4 36 53 99 179 201 201 271 328 292 296 359 303 48 66 53 61 65 62 62 54 52 60 70 66 65 39 287 267 264 230 242 247 250 237 231 237 253
75 146 159 216 331 188 140 153 117 148 228 261 201 268 221 224 263 343 308 283 352 32 58 79 71 60 50 61 60 41 44 42 35 10 330 295 274 243 240 238 245 227 257 238
150 33 71 17 19 18 59 39 172 141 78 225 168 255 208 320 316 309 302 312 276 268 296 275 324 30 51 59 53 53 53 40 15 5 358 336 311 268 251 242 246 250 246 238
80 88 159 196 191 65 262 316 295 154 159 244 228 280 333 351 344 334 333 309 293 299 279 251 298 13 7 322 316 319 317 331 339 356 355 351 335 296 261 254 258 251 247 245
94 119 191 199 229 231 253 251 263 255 223 193 253 255 307 313 314 325 340 359 340 311 292 269 262 271 325 27 31 26 16 352 340 332 336 345 342 335 261 252 261 260 247 253
2 142 57 295 287 273 273 292 279 251 269 258 285 235 38 316 333 355 2 3 6 6 343 296 273 250 216 294 316 329 336 334 332 331 316 338 342 337 325 276 254 251 254 246
127 132 90 264 325 315 323 233 310 295 357 248 231 244 342 322 339 333 352 3 360 358 3 359 314 275 258 250 275 287 298 304 312 316 316 309 321 336 320 291 265 258 256 259
140 116 114 262 342 240 234 23 94 156 94 11 94 326 317 306 317 317 291 326 339 339 344 358 9 339 257 285 308 308 295 292 292 299 304 324 311 315 329 315 277 263 253 260
155 130 166 165 191 289 209 259 78 90 268 197 238 292 304 309 316 302 298 312 317 318 318 321 329 332 293 289 298 285 288 275 285 299 304 308 318 315 319 322 319 297 270 267
111 96 130 136 115 236 235 220 264 147 273 114 316 306 319 333 311 294 312 307 308 305 304 304 301 308 308 283 283 274 274 271 271 295 305 305 306 313 313 313 315 315 288 264
119 102 174 165 196 283 200 256 269 141 246 325 325 318 308 290 280 292 304 306 306 307 304 297 294 288 281 295 293 259 268 262 267 281 294 305 309 312 309 310 305 307 305 284
178 148 195 96 85 270 152 138 180 211 293 309 309 303 292 290 293 295 297 300 303 300 300 298 296 283 264 265 286 271 243 254 261 276 290 304 307 322 316 311 308 305 307 287
298 178 191 175 217 207 192 244 263 283 309 311 304 305 298 291 295 301 299 294 300 300 300 298 294 294 274 261 260 266 246 251 267 262 277 292 302 313 328 316 309 318 314 299
294 234 195 43 273 219 242 290 215 319 306 306 306 311 308 294 297 293 301 296 295 296 295 300 291 289 277 270 253 250 255 260 262 258 254 271 284 305 319 324 314 316 316 297
225 277 223 266 277 279 276 290 293 306 308 309 311 313 306 297 288 285 300 294 296 300 306 300 290 287 281 271 269 252 257 260 253 250 245 255 267 293 313 324 311 324 322 290
195 194 163 225 225 231 276 306 301 309 322 316 312 313 310 302 293 294 294 296 301 307 304 300 291 281 270 267 256 246 249 263 257 246 234 237 250 275 303 296 292 316 325 311